Temp
8 8 8 8 8 8 8 8 7 7 7 6 6 6 6 6 5 5 5 5 5 4 4 4 4 3 2 2 1 1 0 -0 -0 -2 -2 -2 -2 -3 -3 -3 -2 -3 -3
8 8 8 8 8 8 7 7 7 7 6 6 6 6 6 5 5 5 5 5 4 5 4 4 4 3 2 1 1 1 0 -0 -0 -1 -2 -2 -2 -3 -3 -3 -3 -3 -3
7 7 8 8 8 8 7 7 6 6 5 4 4 5 5 3 5 5 5 4 4 4 4 3 3 1 1 0 0 0 -0 -0 -1 -2 -2 -3 -2 -3 -3 -3 -4 -4 -3
6 6 7 7 8 7 7 6 6 6 6 5 5 4 3 4 4 4 4 4 4 3 3 3 2 1 1 1 -0 -0 -1 -1 -2 -2 -2 -3 -3 -3 -3 -3 -4 -4 -4
6 6 6 7 7 7 6 6 6 6 6 6 5 4 3 3 3 3 3 3 3 3 3 1 1 1 1 -0 -1 -1 -2 -2 -2 -3 -2 -3 -3 -3 -3 -3 -4 -4 -4
5 5 6 6 6 6 6 6 6 6 6 6 5 4 3 3 3 3 3 3 2 2 2 1 0 -0 -1 -1 -1 -2 -2 -2 -2 -3 -4 -4 -4 -4 -4 -4 -4 -4 -4
4 4 5 5 5 5 5 5 5 6 5 5 4 4 3 3 3 3 2 2 1 1 1 1 1 -1 -1 -1 -1 -1 -2 -3 -4 -4 -6 -6 -5 -5 -4 -4 -4 -4 -4
3 4 4 4 4 4 4 4 5 4 5 5 4 4 4 3 2 2 2 1 1 0 0 1 0 -0 -1 -1 -2 -4 -4 -4 -4 -4 -6 -7 -7 -5 -5 -5 -4 -4 -4
1 3 3 4 4 4 4 4 4 4 4 4 3 2 2 2 2 1 1 0 -0 -1 -1 -1 -0 -1 -1 -1 -4 -5 -5 -4 -4 -7 -9 -8 -7 -5 -6 -5 -5 -5 -5
2 2 2 3 3 3 3 3 3 3 2 2 2 1 1 1 0 -0 -0 -1 -1 -1 -2 -2 -1 -1 -3 -5 -5 -5 -5 -5 -5 -7 -9 -8 -6 -6 -5 -5 -5 -5 -6
2 2 2 2 1 1 1 1 1 1 1 1 0 -0 -1 -1 -1 -1 -1 -1 -3 -3 -2 -2 -3 -5 -6 -6 -5 -5 -6 -6 -7 -9 -10 -7 -6 -6 -6 -5 -6 -6 -6
0 0 0 -0 -1 -1 -1 -1 -1 -1 -2 -2 -2 -3 -3 -3 -2 -3 -4 -3 -4 -5 -6 -6 -6 -6 -6 -6 -6 -6 -6 -8 -9 -10 -8 -8 -7 -6 -6 -6 -6 -6 -6
-1 -2 -2 -2 -2 -3 -3 -3 -3 -4 -4 -5 -5 -5 -5 -5 -5 -5 -7 -8 -8 -7 -7 -7 -7 -7 -7 -6 -6 -7 -8 -9 -10 -10 -8 -8 -7 -7 -7 -7 -7 -7 -7
-3 -3 -3 -3 -4 -4 -4 -4 -4 -4 -5 -5 -7 -7 -8 -8 -8 -8 -8 -8 -8 -8 -8 -8 -8 -8 -8 -8 -8 -9 -10 -10 -10 -10 -9 -8 -7 -7 -8 -8 -8 -8 -7
-4 -4 -5 -5 -5 -5 -6 -6 -6 -7 -8 -8 -8 -8 -8 -8 -8 -8 -8 -8 -8 -8 -9 -9 -9 -9 -9 -9 -10 -10 -10 -10 -10 -10 -9 -9 -8 -8 -9 -8 -8 -8 -8
-5 -6 -6 -6 -6 -6 -7 -8 -8 -8 -8 -8 -8 -7 -7 -8 -8 -9 -9 -9 -9 -9 -9 -9 -10 -10 -10 -10 -10 -10 -10 -10 -10 -10 -9 -10 -9 -9 -8 -8 -8 -8 -8
-7 -7 -7 -7 -7 -7 -7 -8 -8 -9 -8 -8 -8 -8 -8 -8 -9 -9 -9 -9 -9 -10 -10 -11 -11 -10 -10 -10 -10 -11 -10 -10 -10 -9 -9 -10 -10 -9 -9 -9 -9 -9 -9
-7 -8 -8 -8 -8 -9 -9 -9 -9 -9 -9 -9 -9 -9 -9 -9 -10 -10 -10 -11 -11 -11 -11 -11 -10 -10 -10 -10 -10 -10 -10 -9 -9 -9 -10 -10 -10 -9 -9 -9 -9 -9 -10
-9 -9 -9 -9 -9 -9 -9 -10 -10 -10 -10 -10 -10 -10 -10 -11 -11 -11 -11 -11 -12 -11 -11 -11 -11 -10 -10 -10 -10 -10 -9 -10 -9 -9 -10 -10 -10 -10 -10 -10 -10 -10 -10
-9 -9 -10 -10 -10 -10 -11 -11 -11 -11 -11 -11 -11 -11 -11 -11 -11 -11 -12 -12 -12 -11 -11 -11 -11 -11 -10 -10 -10 -10 -10 -10 -10 -10 -10 -10 -10 -10 -10 -10 -10 -10 -10
-10 -10 -10 -10 -10 -10 -11 -11 -11 -11 -11 -12 -11 -11 -11 -11 -11 -11 -11 -11 -12 -11 -11 -11 -11 -11 -11 -10 -10 -10 -10 -10 -10 -10 -10 -10 -11 -10 -10 -10 -10 -10 -10
-10 -10 -10 -10 -10 -11 -11 -11 -11 -11 -11 -12 -12 -12 -12 -12 -12 -12 -11 -11 -11 -12 -12 -11 -11 -11 -11 -11 -11 -10 -10 -10 -10 -10 -10 -10 -11 -11 -11 -10 -10 -10 -10
-11 -11 -11 -11 -11 -11 -11 -11 -12 -12 -12 -12 -12 -12 -13 -13 -12 -12 -12 -12 -12 -12 -12 -12 -12 -12 -11 -11 -11 -11 -11 -10 -10 -10 -10 -10 -11 -11 -11 -11 -11 -11 -11
-12 -12 -12 -12 -12 -13 -13 -13 -13 -13 -13 -13 -13 -13 -13 -13 -13 -13 -13 -13 -12 -12 -13 -13 -12 -12 -12 -12 -11 -11 -11 -11 -11 -11 -10 -10 -11 -11 -11 -11 -11 -11 -11
-13 -14 -14 -14 -15 -15 -16 -16 -16 -16 -15 -15 -15 -14 -14 -14 -14 -14 -14 -13 -13 -13 -13 -13 -13 -13 -12 -12 -12 -11 -11 -11 -11 -11 -11 -11 -11 -11 -11 -12 -12 -11 -11
-16 -16 -17 -17 -18 -18 -19 -19 -19 -19 -18 -18 -17 -16 -16 -15 -15 -15 -15 -14 -14 -14 -13 -13 -13 -12 -12 -12 -12 -12 -11 -12 -11 -11 -11 -11 -11 -11 -11 -12 -12 -12 -12
Height
3088 3088 3087 3087 3088 3086 3086 3085 3085 3084 3082 3080 3079 3077 3075 3072 3069 3065 3061 3058 3056 3055 3053 3052 3051 3050 3049 3048 3047 3044 3041 3039 3036 3035 3035 3033 3031 3027 3024 3022 3017 3015 3013
3074 3074 3076 3076 3075 3076 3078 3077 3076 3076 3075 3073 3070 3068 3065 3062 3060 3057 3054 3050 3048 3046 3044 3043 3042 3040 3038 3037 3035 3033 3031 3029 3027 3026 3025 3023 3022 3017 3015 3013 3009 3008 3006
3063 3062 3065 3067 3067 3066 3065 3065 3065 3065 3064 3062 3060 3058 3055 3053 3050 3048 3045 3042 3039 3037 3035 3033 3030 3029 3027 3025 3023 3022 3021 3019 3018 3017 3015 3014 3011 3008 3006 3004 3003 3000 2999
3056 3054 3054 3055 3056 3055 3054 3054 3053 3052 3050 3048 3047 3044 3042 3041 3039 3037 3035 3031 3028 3026 3022 3019 3017 3017 3015 3013 3012 3011 3010 3008 3008 3006 3005 3002 3001 2998 2996 2995 2994 2993 2992
3050 3047 3046 3045 3045 3045 3045 3044 3042 3040 3038 3036 3033 3032 3030 3027 3026 3025 3022 3019 3016 3014 3012 3009 3008 3005 3002 3000 3000 2999 2998 2996 2995 2995 2992 2990 2990 2989 2987 2986 2984 2984 2983
3044 3042 3039 3037 3036 3035 3035 3033 3031 3028 3027 3023 3022 3020 3018 3016 3016 3013 3010 3007 3004 3001 2999 2996 2992 2990 2987 2986 2986 2985 2983 2982 2982 2982 2982 2982 2981 2978 2977 2976 2975 2976 2977
3037 3035 3034 3031 3029 3028 3025 3023 3021 3019 3016 3013 3011 3009 3007 3005 3003 3000 2997 2994 2991 2988 2986 2982 2977 2971 2974 2972 2971 2969 2968 2966 2968 2967 2969 2971 2972 2971 2968 2967 2967 2967 2967
3029 3027 3026 3024 3022 3020 3017 3015 3013 3009 3006 3004 3001 2998 2995 2992 2990 2988 2985 2980 2978 2976 2973 2971 2961 2964 2963 2958 2956 2955 2955 2954 2957 2957 2955 2959 2963 2963 2961 2959 2958 2959 2959
3019 3018 3016 3015 3014 3011 3008 3004 3000 2997 2994 2990 2987 2984 2982 2979 2976 2973 2971 2967 2965 2963 2961 2958 2954 2948 2947 2944 2944 2944 2946 2947 2945 2944 2949 2949 2951 2952 2951 2951 2951 2951 2952
3009 3006 3004 3002 2999 2996 2992 2989 2986 2982 2979 2976 2972 2970 2966 2963 2960 2957 2954 2952 2950 2948 2944 2943 2939 2935 2934 2937 2939 2936 2937 2936 2934 2935 2938 2941 2943 2943 2943 2943 2943 2944 2945
2998 2995 2992 2989 2985 2982 2977 2973 2970 2967 2963 2960 2958 2954 2951 2947 2943 2940 2939 2936 2933 2930 2927 2926 2925 2924 2926 2928 2929 2928 2927 2926 2926 2928 2931 2933 2934 2934 2934 2935 2936 2937 2938
2985 2982 2978 2974 2971 2968 2962 2958 2955 2951 2947 2944 2941 2938 2935 2931 2929 2927 2924 2921 2918 2917 2916 2916 2916 2918 2918 2917 2919 2920 2919 2918 2918 2922 2925 2927 2926 2927 2927 2929 2929 2930 2931
2975 2971 2968 2964 2962 2959 2954 2949 2945 2941 2937 2933 2929 2926 2924 2921 2919 2917 2914 2914 2914 2914 2913 2912 2912 2911 2911 2911 2911 2911 2911 2911 2913 2917 2919 2918 2918 2919 2921 2921 2923 2924 2926
2965 2961 2959 2954 2952 2947 2944 2940 2935 2933 2929 2925 2921 2920 2919 2918 2916 2914 2913 2912 2911 2910 2908 2907 2905 2905 2904 2903 2902 2903 2904 2907 2908 2911 2913 2911 2912 2910 2915 2916 2917 2919 2921
2958 2954 2950 2947 2943 2939 2936 2933 2928 2926 2924 2922 2920 2918 2917 2915 2913 2910 2909 2907 2905 2904 2902 2901 2899 2897 2897 2897 2898 2897 2899 2902 2904 2906 2906 2907 2906 2903 2910 2912 2914 2916 2916
2951 2949 2945 2940 2937 2934 2930 2927 2924 2922 2920 2918 2916 2913 2911 2908 2906 2904 2901 2900 2898 2897 2895 2895 2894 2893 2893 2893 2894 2893 2895 2897 2898 2899 2899 2903 2902 2900 2905 2907 2910 2911 2912
2946 2941 2939 2935 2931 2928 2925 2922 2920 2916 2913 2910 2908 2905 2902 2900 2898 2896 2893 2891 2890 2889 2889 2889 2888 2888 2888 2888 2889 2889 2891 2891 2892 2894 2895 2898 2898 2898 2903 2905 2905 2906 2909
2938 2935 2930 2927 2923 2920 2917 2914 2912 2909 2907 2904 2900 2897 2894 2892 2890 2887 2885 2884 2883 2883 2883 2883 2883 2883 2884 2884 2884 2886 2886 2886 2887 2889 2891 2893 2895 2897 2900 2901 2903 2904 2907
2932 2928 2924 2921 2919 2916 2913 2909 2907 2903 2901 2899 2897 2893 2890 2888 2886 2884 2881 2880 2879 2879 2879 2879 2879 2880 2880 2880 2882 2882 2881 2882 2883 2885 2886 2888 2891 2894 2896 2898 2901 2903 2905
2926 2923 2920 2917 2914 2911 2907 2904 2901 2898 2896 2894 2891 2889 2888 2885 2883 2881 2879 2877 2876 2876 2876 2876 2876 2877 2877 2877 2878 2878 2878 2879 2880 2881 2882 2884 2887 2890 2892 2895 2898 2901 2904
2920 2917 2913 2910 2905 2902 2900 2897 2893 2891 2889 2888 2886 2884 2883 2881 2879 2877 2876 2874 2873 2873 2873 2873 2873 2874 2874 2874 2874 2874 2875 2876 2877 2878 2879 2881 2883 2886 2889 2892 2895 2898 2902
2912 2908 2904 2900 2896 2892 2890 2887 2885 2882 2880 2880 2879 2877 2876 2875 2874 2873 2872 2871 2870 2869 2870 2870 2870 2870 2871 2871 2872 2873 2873 2873 2874 2875 2877 2878 2880 2883 2886 2889 2892 2895 2899
2903 2898 2894 2889 2885 2881 2878 2876 2873 2871 2869 2868 2868 2868 2868 2868 2868 2868 2867 2866 2865 2865 2865 2866 2866 2867 2867 2868 2868 2869 2870 2871 2872 2874 2875 2876 2878 2880 2883 2886 2889 2893 2896
2892 2886 2882 2877 2872 2868 2865 2862 2860 2858 2856 2855 2855 2855 2857 2858 2859 2860 2861 2861 2861 2861 2861 2861 2861 2862 2863 2863 2864 2865 2866 2867 2869 2870 2872 2874 2875 2877 2880 2883 2886 2890 2893
2880 2875 2869 2864 2859 2856 2853 2850 2847 2845 2843 2842 2842 2843 2844 2846 2848 2850 2852 2853 2855 2855 2856 2856 2856 2857 2857 2858 2859 2860 2862 2863 2865 2867 2869 2871 2873 2875 2877 2880 2884 2887 2890
2871 2865 2860 2854 2850 2846 2843 2841 2839 2837 2835 2833 2832 2832 2833 2835 2837 2840 2843 2845 2847 2848 2850 2851 2852 2852 2853 2854 2854 2856 2857 2859 2862 2864 2866 2868 2870 2872 2874 2877 2880 2883 2887
Wind_Speed
41 35 33 28 26 26 26 24 24 24 24 28 30 31 32 32 32 31 31 33 33 38 38 36 39 37 32 37 38 37 29 33 36 40 42 43 35 35 36 36 34 32 26
36 40 37 33 33 32 30 29 29 28 30 32 34 35 36 36 35 34 32 31 33 35 32 38 35 29 38 38 45 34 31 36 41 38 39 40 34 35 35 35 32 28 25
28 35 36 37 36 33 34 34 34 34 35 38 39 38 38 39 38 37 37 32 34 34 36 38 36 34 40 43 40 34 36 42 45 40 41 36 34 33 34 34 29 27 26
24 25 31 38 38 36 34 35 37 40 40 43 43 42 41 40 42 40 39 39 44 43 40 42 37 41 46 40 39 40 42 44 42 37 42 34 31 33 33 33 29 28 25
18 21 26 26 31 34 36 37 39 41 44 47 44 44 41 42 43 45 44 44 44 43 44 37 43 44 43 41 42 43 43 46 43 41 36 31 30 32 32 32 29 26 24
22 20 20 22 27 31 36 37 36 37 39 39 38 39 44 44 46 45 47 47 46 49 48 47 48 44 47 41 47 47 55 54 53 37 32 28 30 32 31 30 29 27 24
18 20 22 24 26 28 30 30 32 34 38 33 38 40 41 46 48 49 49 48 55 51 49 52 58 48 43 49 48 59 58 57 45 35 27 28 30 31 30 27 28 28 25
26 28 29 31 33 34 35 38 41 43 43 43 44 45 48 50 50 51 49 54 51 52 49 59 53 49 52 58 59 59 58 52 42 35 28 26 29 29 28 27 26 25 23
40 39 36 40 38 41 43 45 45 47 49 50 50 51 53 54 54 53 53 49 51 44 54 50 62 53 65 67 55 45 39 40 40 29 26 24 25 29 27 27 25 21 21
37 40 41 41 40 44 47 47 46 47 49 51 51 50 52 55 56 54 51 49 52 53 51 52 61 61 59 44 37 34 37 39 35 28 20 22 27 26 25 25 24 23 21
40 41 42 44 45 46 46 47 48 48 49 49 51 51 52 55 56 57 58 59 53 52 53 54 56 39 34 28 30 33 36 32 27 17 17 23 24 24 23 22 21 20 17
39 41 43 44 43 42 44 44 45 46 46 45 43 43 43 44 44 42 44 46 43 39 32 27 23 25 23 23 27 32 32 24 16 16 21 24 22 21 19 18 16 14 13
38 38 37 38 40 39 40 40 40 40 39 37 36 31 29 29 31 32 24 18 16 16 18 18 17 17 19 20 23 27 26 19 16 19 23 22 20 18 15 15 13 12 13
35 37 38 37 37 38 37 36 35 35 32 26 20 16 14 17 17 17 19 23 23 19 17 18 18 20 21 21 22 21 18 16 17 20 22 21 19 13 13 13 12 13 14
35 36 36 35 33 32 31 28 25 20 18 16 12 16 18 23 27 26 21 19 20 20 21 22 21 20 19 19 19 17 16 17 18 19 18 18 15 12 12 11 12 12 11
30 29 27 25 25 25 24 23 21 21 22 24 25 25 28 28 25 24 23 23 23 21 19 20 20 15 17 18 19 18 17 18 17 17 16 14 12 12 11 11 11 11 10
22 22 24 25 27 27 26 25 23 23 25 26 27 27 28 28 27 26 26 24 21 17 16 17 15 15 15 16 15 14 16 17 16 16 16 14 12 12 12 11 10 9 11
25 26 26 26 25 25 25 25 24 24 22 21 22 21 20 20 21 20 18 16 12 12 13 15 15 13 13 13 12 13 13 14 15 17 17 14 13 15 13 10 10 10 12
24 23 24 25 24 24 23 22 21 19 19 18 17 18 17 17 16 15 15 12 13 13 13 12 12 12 11 9 9 10 10 11 13 16 17 16 15 15 13 11 12 12 14
29 28 27 27 26 25 25 25 24 23 21 20 19 17 16 15 15 14 14 13 10 10 11 10 9 9 10 11 10 8 7 8 11 13 15 16 16 15 14 13 12 13 14
30 30 31 31 30 29 29 29 28 26 25 23 21 20 18 16 15 15 14 13 13 13 9 9 9 9 8 6 6 9 8 7 9 9 12 15 15 15 15 14 14 16 17
35 35 35 35 34 33 32 31 31 31 30 28 25 23 21 19 17 15 13 13 14 12 11 10 10 7 9 8 7 7 8 8 8 8 9 12 14 15 16 16 16 16 19
36 37 37 37 38 38 37 36 35 34 34 33 31 28 26 23 20 18 15 13 13 12 13 14 14 12 11 12 11 10 10 7 9 8 9 10 12 14 15 16 16 18 20
41 42 42 41 40 39 38 38 37 36 35 35 34 32 30 28 25 22 19 16 15 14 15 15 14 13 13 14 14 13 12 11 9 9 9 10 11 13 15 16 16 17 19
40 39 38 37 35 33 31 29 30 30 31 31 32 31 30 28 27 26 25 22 18 17 14 13 14 14 16 16 15 14 14 13 12 11 11 11 11 12 14 16 16 16 18
34 32 30 28 26 25 23 21 19 20 20 21 22 22 21 21 22 23 23 24 22 21 18 16 14 12 11 12 11 11 12 12 13 13 13 12 11 12 13 16 18 18 17
Wind_Direction
274 271 258 255 261 266 265 275 281 282 273 274 280 286 290 294 300 307 303 293 290 280 285 278 289 285 281 291 284 293 290 295 289 286 292 303 287 291 297 298 297 294 292
273 264 258 250 249 260 266 270 277 285 280 280 279 285 288 290 293 301 301 298 295 293 288 287 287 276 278 285 285 286 293 287 285 287 303 297 282 288 293 292 290 290 282
291 262 257 256 255 254 261 268 273 277 277 276 274 279 283 285 287 291 294 295 298 296 288 284 283 284 279 290 286 282 287 279 281 291 298 287 282 287 289 288 285 280 274
291 273 269 263 257 255 259 267 267 271 268 268 268 271 274 282 285 287 289 287 289 288 286 289 271 278 280 283 282 276 281 276 282 286 289 278 278 282 283 285 281 275 273
297 280 268 268 259 259 266 272 273 272 275 276 264 266 269 274 279 288 288 291 290 290 287 274 268 277 281 281 276 277 276 274 281 281 280 269 274 280 283 281 275 264 270
288 287 278 271 264 264 268 271 274 278 280 280 272 265 269 276 282 283 287 290 290 289 288 283 276 280 269 275 272 270 265 271 266 283 268 269 273 276 276 276 274 262 263
299 294 283 274 272 271 270 272 273 278 275 277 277 279 278 279 279 281 284 284 294 286 284 277 263 259 266 266 272 263 263 262 264 265 258 265 271 272 274 275 270 260 268
299 297 294 292 287 283 282 280 279 280 280 280 280 278 277 276 277 278 281 287 286 285 285 276 254 273 265 254 253 253 257 261 268 263 253 260 268 273 274 271 265 259 262
300 295 290 285 286 287 283 285 284 281 284 284 283 281 276 275 274 274 277 277 280 276 281 283 254 274 260 257 250 252 268 272 270 246 252 253 264 267 268 265 263 260 265
289 290 292 291 287 285 288 287 286 285 284 283 281 277 275 276 277 276 272 272 275 281 281 284 251 259 250 252 265 273 277 272 259 244 254 264 267 267 265 262 262 261 269
293 295 296 297 298 299 298 296 293 291 289 287 286 285 283 277 274 273 276 282 286 285 276 264 248 250 256 271 277 275 266 258 247 241 256 263 264 262 262 265 260 262 261
300 302 303 306 308 308 306 305 304 301 299 298 295 292 289 288 287 286 282 268 258 254 248 251 268 277 284 283 283 276 266 242 235 250 256 257 257 257 260 260 256 252 251
305 308 310 309 308 308 307 307 307 307 305 304 301 298 298 292 284 262 246 259 278 288 288 284 280 278 279 278 276 272 253 234 234 248 251 251 251 251 253 249 247 248 251
313 314 313 312 310 309 308 309 311 311 314 317 321 313 293 276 272 288 290 300 308 303 295 291 289 285 279 275 266 252 233 236 243 247 249 248 248 242 241 243 244 246 247
310 309 309 310 312 312 313 313 317 321 324 326 309 290 296 305 309 312 306 298 299 301 296 291 293 290 280 266 243 228 237 246 243 241 247 243 234 228 233 245 249 244 242
310 310 312 316 319 322 322 321 314 309 306 306 301 297 299 305 303 298 295 298 299 293 290 283 288 269 260 250 241 232 237 245 237 238 240 230 231 218 227 237 240 236 220
312 314 314 314 315 315 313 310 307 305 304 302 300 300 300 299 297 295 295 294 291 282 270 273 263 266 260 251 238 248 251 245 237 232 224 226 226 218 226 237 228 225 204
314 314 315 316 317 316 314 312 311 309 309 307 309 311 311 308 306 306 302 295 282 276 265 266 271 267 253 242 256 263 257 246 233 230 229 225 224 221 224 229 221 208 190
315 317 317 316 314 313 313 313 314 315 315 317 318 322 327 325 320 316 311 295 276 266 267 272 268 253 245 239 256 256 250 239 232 228 224 224 222 224 219 221 213 198 188
310 310 308 307 305 305 305 305 305 306 308 309 311 313 313 312 315 310 308 298 269 282 267 266 262 256 249 244 243 252 249 238 235 237 227 220 217 217 211 214 208 197 193
307 306 304 304 303 302 300 298 297 296 295 295 296 297 300 304 303 298 293 293 275 276 275 284 266 263 253 277 307 244 238 243 241 239 230 216 212 209 206 208 206 201 198
306 306 305 303 301 299 296 294 291 289 288 286 284 285 286 288 289 294 298 286 271 268 274 266 259 262 280 268 271 283 240 224 241 240 235 217 208 206 207 207 209 207 206
306 305 303 300 298 296 294 292 288 285 283 281 279 276 273 272 273 278 279 286 275 256 256 264 267 266 267 269 268 264 269 239 217 232 231 223 211 206 208 207 209 210 209
307 305 303 301 299 295 292 289 286 283 280 276 274 271 268 266 262 264 266 268 270 268 263 260 261 260 257 250 250 254 252 256 244 221 224 224 212 208 206 206 208 207 209
310 309 308 306 304 301 298 293 289 285 282 279 275 271 267 263 259 255 256 257 258 260 265 270 268 263 257 255 253 245 242 242 236 229 221 217 213 207 204 203 203 205 207
319 319 318 317 315 312 309 306 303 298 296 293 288 281 270 257 248 245 247 250 250 254 258 261 264 266 259 254 251 245 233 228 226 220 218 216 211 208 206 205 208 209 209